GFSCGP_500_temp_021.txt.gz
Temp
-10 -10 -8 -10 -10 -10 -11 -11 -11 -11 -10 -11 -11 -11 -12 -12 -12 -12 -13 -12 -13 -12 -11 -11 -12 -12 -12 -13 -12 -12 -12 -12 -12 -12 -12 -12 -12 -12 -12 -12 -12 -12 -13 -13
-9 -7 -9 -10 -10 -10 -11 -11 -11 -10 -11 -11 -11 -12 -12 -11 -12 -12 -12 -12 -12 -11 -11 -12 -12 -12 -12 -13 -12 -12 -12 -12 -12 -12 -12 -12 -12 -12 -12 -12 -12 -13 -13 -13
-8 -8 -10 -10 -10 -10 -10 -10 -11 -11 -11 -12 -12 -12 -12 -12 -12 -12 -12 -13 -12 -11 -11 -12 -12 -12 -12 -13 -12 -12 -12 -12 -12 -12 -12 -12 -12 -12 -12 -12 -12 -13 -13 -13
-9 -10 -10 -10 -10 -10 -10 -11 -11 -11 -11 -11 -12 -11 -11 -11 -11 -12 -12 -13 -12 -11 -11 -12 -12 -12 -12 -12 -12 -12 -12 -12 -12 -12 -12 -12 -12 -12 -12 -12 -12 -13 -13 -13
-8 -9 -9 -9 -9 -10 -10 -11 -11 -11 -12 -12 -12 -12 -10 -11 -11 -11 -12 -11 -11 -11 -12 -12 -12 -12 -12 -12 -12 -12 -12 -12 -12 -12 -12 -12 -12 -12 -12 -12 -12 -12 -13 -13
-9 -10 -10 -10 -10 -10 -11 -11 -11 -12 -12 -12 -12 -11 -10 -11 -12 -11 -11 -11 -11 -12 -12 -12 -12 -12 -12 -12 -12 -12 -12 -12 -12 -12 -12 -12 -12 -12 -12 -12 -12 -12 -13 -13
-8 -8 -9 -10 -10 -10 -11 -12 -11 -13 -12 -10 -11 -11 -10 -11 -12 -12 -11 -12 -11 -12 -12 -12 -12 -12 -12 -12 -12 -12 -12 -12 -12 -12 -12 -12 -12 -12 -12 -13 -13 -13 -13 -13
-9 -9 -8 -9 -9 -9 -10 -12 -11 -12 -12 -11 -12 -11 -10 -11 -12 -12 -11 -12 -12 -12 -11 -11 -12 -12 -12 -11 -12 -12 -12 -12 -12 -12 -12 -12 -12 -12 -12 -13 -13 -12 -13 -13
-9 -8 -9 -9 -10 -10 -11 -10 -11 -12 -13 -12 -12 -11 -11 -11 -11 -12 -11 -12 -11 -11 -11 -11 -12 -12 -11 -11 -12 -12 -12 -12 -12 -11 -12 -12 -12 -12 -12 -13 -13 -13 -13 -13
-10 -10 -10 -10 -11 -10 -10 -11 -13 -12 -12 -12 -11 -11 -11 -12 -11 -11 -11 -10 -11 -12 -11 -11 -12 -12 -11 -11 -12 -12 -12 -12 -12 -12 -12 -12 -12 -12 -12 -13 -12 -12 -13 -13
-10 -10 -10 -11 -10 -10 -10 -12 -13 -13 -12 -11 -11 -11 -11 -12 -12 -11 -10 -11 -11 -11 -11 -11 -11 -11 -12 -11 -12 -12 -12 -12 -12 -12 -12 -11 -12 -12 -12 -12 -12 -12 -12 -13
-10 -11 -11 -10 -10 -11 -11 -11 -12 -12 -12 -11 -11 -11 -11 -11 -11 -11 -11 -11 -11 -11 -11 -11 -11 -11 -12 -11 -12 -12 -12 -12 -12 -12 -12 -12 -11 -12 -13 -12 -12 -12 -13 -13
-11 -11 -11 -11 -11 -13 -12 -11 -12 -13 -12 -11 -11 -10 -12 -11 -11 -11 -11 -11 -11 -11 -11 -11 -11 -12 -12 -12 -12 -12 -12 -12 -12 -13 -12 -12 -11 -12 -12 -12 -12 -12 -12 -13
-14 -12 -11 -10 -10 -10 -11 -12 -12 -12 -11 -10 -10 -11 -12 -12 -12 -11 -11 -10 -11 -11 -11 -11 -11 -11 -12 -12 -12 -12 -12 -12 -12 -12 -12 -12 -12 -12 -12 -12 -13 -12 -12 -12
-14 -12 -11 -11 -11 -11 -12 -11 -11 -10 -10 -10 -10 -11 -12 -11 -12 -11 -11 -10 -11 -11 -11 -11 -11 -11 -11 -12 -12 -12 -12 -12 -12 -12 -12 -12 -12 -12 -12 -12 -13 -13 -13 -12
-13 -11 -11 -12 -11 -11 -12 -12 -11 -10 -11 -11 -10 -11 -12 -11 -11 -11 -10 -10 -10 -11 -11 -11 -11 -11 -11 -12 -12 -12 -12 -12 -12 -12 -12 -12 -12 -12 -12 -12 -12 -13 -13 -13
-12 -11 -13 -11 -12 -12 -12 -12 -12 -11 -11 -11 -10 -10 -11 -12 -12 -12 -12 -9 -9 -10 -11 -11 -11 -11 -11 -11 -11 -12 -12 -11 -12 -12 -12 -12 -12 -12 -11 -12 -12 -12 -13 -13
-13 -11 -12 -12 -12 -12 -11 -11 -11 -11 -11 -12 -11 -10 -11 -11 -12 -12 -11 -11 -10 -10 -11 -11 -11 -11 -11 -11 -11 -12 -12 -12 -12 -12 -12 -12 -12 -12 -12 -12 -12 -12 -12 -12
-13 -12 -11 -11 -12 -12 -11 -11 -11 -11 -11 -11 -12 -10 -11 -12 -13 -12 -11 -11 -10 -10 -11 -11 -11 -11 -11 -11 -11 -12 -12 -12 -12 -12 -12 -12 -12 -12 -12 -12 -12 -12 -12 -12
-14 -14 -13 -11 -13 -12 -10 -12 -12 -11 -11 -12 -12 -11 -10 -11 -11 -10 -10 -11 -10 -10 -10 -11 -11 -11 -11 -11 -11 -11 -12 -12 -12 -12 -12 -12 -12 -12 -12 -12 -12 -12 -12 -12
-15 -15 -14 -12 -13 -12 -11 -11 -13 -12 -12 -12 -11 -11 -10 -10 -10 -10 -10 -11 -10 -9 -10 -10 -11 -12 -11 -11 -12 -11 -12 -12 -12 -12 -12 -12 -12 -12 -12 -12 -12 -12 -12 -12
-14 -15 -15 -14 -13 -12 -11 -12 -12 -12 -12 -12 -11 -11 -10 -10 -11 -11 -11 -10 -10 -10 -10 -10 -11 -12 -12 -11 -12 -11 -11 -12 -12 -12 -12 -12 -12 -12 -12 -13 -12 -12 -12 -12
-15 -15 -15 -15 -14 -11 -12 -12 -12 -12 -12 -12 -12 -12 -11 -10 -11 -11 -11 -10 -10 -10 -10 -10 -11 -12 -11 -11 -11 -11 -11 -12 -12 -12 -12 -12 -12 -12 -12 -12 -12 -12 -12 -12
-14 -15 -14 -15 -14 -12 -13 -13 -13 -13 -13 -12 -12 -12 -11 -10 -11 -11 -11 -10 -10 -10 -10 -10 -10 -11 -11 -11 -11 -11 -11 -11 -12 -12 -12 -12 -12 -12 -12 -12 -12 -12 -12 -12
-15 -15 -14 -15 -14 -13 -14 -13 -13 -13 -13 -13 -12 -12 -11 -11 -11 -11 -11 -10 -10 -10 -10 -10 -10 -11 -11 -11 -11 -11 -11 -11 -12 -12 -12 -12 -12 -12 -12 -12 -12 -12 -12 -12
-16 -15 -15 -15 -14 -13 -14 -13 -13 -13 -13 -12 -12 -12 -12 -11 -11 -11 -11 -11 -10 -10 -11 -10 -11 -11 -12 -11 -11 -11 -11 -11 -11 -12 -12 -12 -12 -12 -12 -12 -12 -12 -12 -12

GFSCGP_500_temp_024.txt.gz
Temp
-12 -12 -8 -10 -11 -12 -11 -10 -10 -11 -11 -11 -11 -10 -11 -11 -12 -11 -12 -12 -12 -12 -12 -12 -13 -13 -13 -13 -13 -13 -12 -12 -12 -12 -12 -12 -12 -12 -12 -12 -12 -12 -13 -12
-11 -8 -10 -11 -11 -11 -10 -10 -10 -11 -11 -11 -11 -11 -11 -12 -11 -12 -12 -12 -13 -13 -11 -12 -13 -12 -12 -13 -13 -12 -12 -12 -12 -12 -12 -12 -12 -12 -12 -12 -12 -13 -13 -13
-10 -9 -11 -11 -11 -11 -10 -10 -10 -10 -11 -12 -10 -10 -11 -11 -12 -12 -12 -12 -13 -12 -11 -12 -13 -13 -13 -13 -13 -12 -12 -12 -12 -12 -12 -12 -12 -12 -12 -12 -13 -12 -13 -13
-10 -10 -10 -10 -10 -10 -9 -10 -11 -11 -11 -10 -12 -10 -11 -12 -12 -12 -12 -12 -11 -12 -12 -13 -13 -13 -13 -13 -12 -12 -12 -12 -12 -12 -12 -12 -12 -13 -12 -12 -12 -12 -13 -13
-8 -9 -9 -9 -9 -10 -9 -11 -11 -11 -11 -11 -12 -11 -10 -11 -11 -12 -11 -11 -11 -12 -12 -13 -13 -13 -13 -12 -12 -12 -12 -12 -12 -12 -12 -12 -12 -13 -13 -13 -13 -13 -13 -13
-11 -10 -10 -9 -10 -10 -11 -11 -11 -11 -11 -12 -11 -12 -10 -11 -11 -10 -11 -11 -11 -12 -12 -12 -12 -12 -12 -12 -12 -12 -12 -12 -11 -12 -12 -12 -12 -13 -13 -13 -13 -13 -13 -13
-10 -10 -10 -10 -10 -10 -11 -11 -11 -11 -11 -9 -11 -11 -11 -11 -11 -10 -10 -10 -12 -13 -12 -12 -12 -12 -12 -12 -12 -12 -12 -11 -11 -11 -12 -12 -12 -13 -13 -13 -13 -13 -13 -13
-10 -10 -9 -9 -9 -10 -10 -11 -10 -10 -9 -9 -11 -10 -11 -11 -11 -10 -11 -11 -12 -12 -12 -12 -12 -12 -12 -12 -12 -12 -11 -11 -11 -11 -12 -12 -12 -13 -13 -13 -13 -13 -13 -13
-10 -9 -10 -10 -10 -10 -11 -9 -10 -10 -11 -11 -10 -11 -11 -11 -10 -10 -11 -12 -12 -12 -12 -11 -11 -11 -12 -12 -12 -11 -11 -11 -11 -11 -12 -12 -12 -12 -12 -13 -13 -13 -13 -13
-11 -10 -10 -11 -11 -11 -10 -10 -11 -10 -12 -10 -10 -11 -11 -11 -10 -10 -10 -12 -12 -12 -11 -11 -11 -11 -11 -11 -11 -11 -12 -11 -11 -11 -12 -12 -12 -12 -12 -12 -13 -13 -13 -14
-12 -11 -11 -12 -10 -9 -10 -10 -12 -12 -11 -10 -10 -10 -11 -11 -11 -11 -11 -12 -12 -11 -10 -11 -11 -11 -11 -12 -11 -12 -12 -11 -12 -12 -12 -12 -12 -12 -12 -13 -13 -13 -13 -13
-11 -12 -12 -10 -10 -11 -10 -10 -10 -10 -9 -10 -11 -10 -12 -11 -11 -11 -12 -12 -11 -11 -11 -11 -11 -11 -12 -12 -11 -12 -12 -12 -12 -12 -12 -12 -12 -12 -12 -12 -12 -13 -13 -13
-13 -12 -12 -11 -11 -12 -11 -10 -11 -10 -11 -10 -11 -10 -11 -11 -11 -11 -12 -11 -11 -12 -11 -11 -11 -11 -12 -11 -11 -12 -12 -12 -12 -12 -12 -12 -12 -12 -12 -12 -12 -12 -12 -13
-12 -11 -10 -10 -9 -10 -10 -10 -12 -12 -11 -9 -9 -11 -11 -10 -11 -11 -11 -11 -12 -11 -11 -11 -11 -11 -12 -11 -11 -11 -12 -12 -12 -12 -12 -12 -12 -12 -13 -12 -13 -12 -12 -13
-11 -10 -9 -10 -11 -11 -11 -10 -10 -11 -10 -10 -9 -10 -11 -10 -10 -10 -11 -11 -11 -11 -11 -11 -11 -11 -12 -11 -11 -12 -12 -11 -12 -12 -12 -12 -12 -12 -12 -12 -12 -12 -12 -12
-11 -10 -10 -11 -11 -11 -11 -11 -11 -10 -11 -11 -10 -11 -11 -11 -11 -11 -11 -10 -10 -11 -11 -11 -11 -11 -11 -11 -11 -11 -12 -12 -11 -11 -12 -12 -12 -12 -12 -13 -13 -13 -12 -12
-11 -11 -11 -10 -11 -12 -12 -11 -11 -11 -10 -11 -11 -10 -11 -11 -10 -10 -10 -9 -10 -11 -11 -11 -11 -11 -11 -11 -12 -11 -12 -12 -11 -12 -11 -12 -12 -12 -12 -12 -13 -13 -13 -13
-12 -11 -11 -10 -12 -13 -10 -12 -11 -10 -10 -11 -11 -11 -11 -11 -10 -10 -10 -9 -10 -10 -11 -11 -11 -11 -11 -12 -11 -11 -12 -12 -12 -12 -11 -11 -11 -12 -12 -12 -12 -12 -12 -12
-13 -12 -11 -11 -11 -10 -10 -12 -11 -11 -10 -11 -11 -10 -11 -12 -11 -10 -10 -9 -10 -10 -11 -11 -11 -11 -11 -12 -12 -12 -11 -12 -12 -12 -12 -11 -11 -11 -12 -12 -12 -12 -12 -12
-15 -14 -13 -11 -13 -10 -11 -12 -12 -11 -11 -11 -12 -11 -10 -11 -10 -9 -9 -10 -10 -10 -10 -11 -11 -11 -11 -11 -12 -12 -12 -12 -12 -12 -12 -12 -12 -12 -12 -12 -12 -12 -12 -12
-15 -15 -14 -14 -14 -11 -12 -12 -12 -12 -11 -12 -12 -11 -10 -10 -10 -10 -10 -10 -10 -10 -10 -10 -11 -11 -11 -11 -11 -12 -12 -12 -12 -12 -12 -12 -12 -12 -12 -12 -12 -12 -12 -12
-15 -15 -15 -15 -14 -13 -13 -13 -13 -13 -12 -11 -11 -11 -10 -10 -11 -10 -10 -10 -10 -10 -10 -10 -11 -11 -11 -11 -11 -12 -12 -12 -12 -12 -12 -12 -12 -12 -12 -12 -12 -12 -12 -12
-15 -15 -15 -15 -15 -14 -13 -13 -13 -13 -12 -12 -12 -11 -11 -11 -11 -11 -10 -10 -10 -10 -10 -10 -11 -11 -10 -11 -11 -11 -12 -12 -12 -12 -12 -12 -12 -12 -12 -12 -12 -12 -12 -12
-15 -15 -15 -15 -15 -14 -14 -13 -13 -13 -13 -12 -12 -12 -11 -11 -11 -11 -11 -10 -10 -10 -10 -10 -11 -11 -11 -10 -11 -11 -11 -12 -12 -12 -12 -12 -12 -12 -12 -12 -12 -12 -12 -12
-15 -15 -15 -15 -15 -14 -14 -12 -13 -13 -13 -13 -13 -13 -12 -11 -11 -11 -11 -10 -10 -10 -10 -10 -11 -11 -11 -10 -10 -11 -11 -12 -12 -12 -12 -12 -12 -12 -12 -12 -12 -12 -12 -12
-16 -15 -15 -15 -14 -14 -14 -13 -13 -13 -13 -13 -13 -13 -13 -13 -12 -11 -11 -11 -10 -10 -10 -10 -11 -11 -10 -10 -10 -10 -11 -11 -11 -12 -12 -12 -12 -12 -12 -12 -12 -12 -12 -13

GFSCGP_500_temp_030.txt.gz
Temp
-12 -12 -9 -9 -9 -10 -12 -11 -11 -12 -13 -14 -13 -12 -11 -11 -9 -10 -10 -10 -11 -11 -10 -12 -12 -13 -13 -13 -13 -14 -13 -13 -13 -13 -13 -13 -13 -13 -13 -13 -13 -13 -13 -13
-12 -10 -10 -11 -12 -12 -12 -12 -11 -12 -12 -13 -12 -11 -10 -10 -10 -10 -10 -10 -11 -11 -12 -12 -12 -13 -13 -14 -13 -13 -13 -13 -13 -13 -12 -13 -13 -12 -13 -13 -13 -13 -13 -13
-12 -11 -12 -12 -12 -12 -11 -12 -12 -13 -13 -13 -13 -10 -10 -11 -10 -10 -10 -11 -11 -11 -12 -12 -12 -13 -13 -13 -13 -12 -13 -12 -13 -12 -13 -13 -12 -12 -13 -13 -13 -13 -13 -13
-12 -12 -12 -12 -12 -12 -12 -11 -13 -13 -13 -12 -12 -8 -10 -11 -10 -10 -10 -11 -11 -11 -12 -12 -13 -13 -12 -12 -12 -12 -12 -12 -12 -12 -13 -13 -12 -13 -13 -13 -13 -13 -13 -13
-10 -11 -11 -11 -10 -12 -10 -13 -13 -14 -13 -12 -12 -10 -10 -10 -11 -10 -11 -11 -11 -11 -12 -12 -12 -12 -11 -11 -12 -12 -12 -12 -12 -13 -12 -12 -12 -12 -13 -13 -13 -13 -13 -14
-11 -12 -12 -12 -12 -12 -13 -13 -13 -13 -12 -11 -11 -11 -8 -11 -10 -11 -11 -11 -11 -12 -12 -12 -12 -11 -11 -11 -11 -12 -12 -12 -12 -12 -12 -12 -12 -12 -13 -13 -13 -13 -13 -14
-11 -11 -12 -12 -12 -12 -12 -12 -12 -12 -12 -10 -10 -10 -9 -11 -11 -11 -10 -11 -12 -12 -12 -12 -12 -11 -11 -11 -11 -12 -12 -12 -12 -12 -12 -12 -12 -12 -12 -13 -13 -13 -13 -13
-12 -12 -11 -11 -11 -11 -11 -12 -11 -11 -11 -10 -10 -9 -8 -10 -12 -11 -10 -11 -12 -12 -11 -11 -12 -11 -11 -11 -11 -11 -12 -12 -12 -12 -12 -12 -12 -12 -13 -12 -13 -13 -14 -14
-12 -12 -12 -11 -11 -11 -11 -10 -11 -11 -11 -10 -9 -9 -9 -11 -11 -10 -11 -12 -11 -12 -11 -11 -11 -11 -11 -11 -11 -12 -12 -12 -12 -12 -12 -12 -12 -12 -12 -13 -13 -13 -14 -14
-12 -12 -12 -12 -12 -12 -11 -12 -11 -11 -10 -10 -9 -9 -9 -11 -10 -10 -11 -11 -11 -11 -11 -11 -11 -11 -11 -11 -11 -12 -12 -12 -12 -12 -12 -12 -12 -12 -12 -13 -13 -13 -14 -14
-12 -12 -12 -12 -11 -11 -11 -10 -10 -11 -10 -10 -9 -9 -10 -11 -11 -11 -11 -11 -11 -10 -11 -11 -11 -10 -11 -11 -11 -12 -12 -12 -13 -13 -12 -12 -12 -12 -12 -13 -12 -13 -13 -13
-12 -12 -12 -11 -12 -11 -11 -11 -10 -9 -9 -9 -9 -9 -10 -11 -11 -11 -11 -11 -10 -11 -11 -11 -11 -11 -11 -11 -11 -11 -12 -12 -12 -13 -12 -12 -12 -12 -12 -12 -12 -13 -13 -12
-12 -13 -12 -12 -11 -11 -10 -10 -9 -10 -10 -9 -9 -9 -10 -11 -11 -11 -11 -11 -11 -11 -11 -10 -11 -11 -11 -11 -11 -11 -12 -12 -12 -12 -12 -12 -12 -12 -12 -12 -12 -12 -12 -12
-13 -12 -12 -11 -10 -11 -10 -10 -10 -10 -9 -9 -9 -9 -12 -11 -11 -10 -11 -11 -11 -11 -10 -10 -11 -11 -11 -11 -11 -11 -11 -11 -12 -12 -12 -12 -12 -11 -12 -12 -12 -12 -12 -12
-14 -12 -11 -11 -11 -11 -11 -11 -10 -9 -9 -9 -10 -10 -10 -11 -11 -11 -12 -11 -11 -11 -10 -10 -11 -11 -11 -11 -11 -11 -12 -11 -11 -12 -12 -12 -12 -12 -12 -12 -12 -12 -12 -12
-14 -13 -12 -11 -11 -11 -11 -10 -10 -9 -10 -9 -10 -11 -12 -12 -10 -11 -12 -12 -11 -10 -10 -10 -11 -11 -11 -11 -11 -11 -11 -11 -11 -12 -12 -12 -12 -13 -13 -12 -12 -12 -12 -12
-15 -13 -12 -12 -12 -12 -11 -9 -9 -9 -10 -10 -10 -10 -12 -11 -11 -11 -12 -11 -12 -11 -10 -10 -11 -11 -11 -11 -11 -11 -11 -11 -11 -12 -12 -12 -12 -13 -12 -12 -12 -12 -12 -12
-16 -14 -12 -12 -13 -12 -10 -11 -10 -10 -10 -10 -10 -11 -12 -12 -11 -11 -12 -12 -12 -12 -10 -10 -11 -11 -11 -11 -11 -11 -11 -11 -11 -12 -12 -12 -12 -12 -12 -12 -12 -12 -12 -12
-17 -14 -13 -14 -13 -12 -11 -12 -11 -10 -10 -10 -10 -11 -12 -12 -12 -11 -13 -12 -12 -12 -11 -10 -11 -11 -11 -11 -11 -11 -11 -11 -12 -12 -12 -12 -12 -12 -12 -12 -12 -12 -12 -12
-17 -16 -14 -14 -13 -12 -12 -12 -11 -11 -11 -10 -10 -11 -11 -12 -11 -11 -12 -12 -12 -11 -11 -11 -11 -11 -11 -11 -11 -11 -11 -11 -12 -12 -12 -12 -12 -12 -12 -12 -12 -12 -12 -12
-18 -17 -15 -15 -13 -12 -12 -12 -12 -11 -10 -10 -10 -11 -11 -10 -10 -11 -12 -12 -12 -11 -11 -11 -11 -11 -11 -11 -11 -11 -11 -11 -12 -12 -12 -12 -12 -12 -12 -12 -12 -12 -12 -12
-18 -17 -17 -16 -14 -13 -13 -13 -12 -12 -10 -10 -10 -10 -10 -10 -10 -11 -13 -12 -12 -11 -11 -11 -11 -10 -11 -11 -11 -11 -11 -11 -11 -12 -12 -12 -12 -12 -12 -12 -12 -12 -12 -12
-18 -18 -17 -16 -15 -14 -14 -13 -12 -12 -11 -11 -10 -11 -11 -10 -9 -10 -11 -11 -11 -11 -11 -11 -11 -10 -10 -11 -11 -11 -11 -11 -11 -12 -12 -12 -12 -12 -12 -12 -12 -12 -12 -12
-18 -18 -17 -16 -16 -14 -14 -14 -13 -12 -12 -11 -11 -11 -11 -11 -10 -10 -11 -11 -11 -11 -11 -11 -11 -11 -10 -11 -11 -11 -11 -11 -11 -11 -12 -12 -12 -12 -12 -12 -12 -12 -12 -12
-18 -18 -17 -16 -16 -16 -15 -15 -13 -13 -12 -11 -11 -11 -11 -11 -11 -11 -11 -11 -11 -11 -11 -11 -11 -11 -11 -10 -11 -11 -11 -11 -11 -11 -11 -12 -12 -12 -12 -12 -12 -12 -12 -12
-19 -19 -17 -17 -16 -16 -15 -15 -15 -13 -13 -12 -11 -11 -11 -11 -11 -11 -11 -11 -11 -11 -11 -11 -11 -11 -10 -10 -10 -11 -11 -11 -11 -11 -11 -11 -12 -12 -12 -12 -12 -12 -13 -12

GFSCGP_500_temp_033.txt.gz
Temp
-12 -12 -10 -10 -10 -11 -11 -11 -11 -10 -11 -12 -11 -12 -12 -12 -12 -12 -10 -10 -10 -10 -11 -11 -11 -11 -12 -12 -13 -13 -13 -14 -14 -13 -13 -13 -13 -12 -12 -12 -13 -12 -13 -13
-13 -11 -10 -11 -12 -11 -11 -11 -10 -11 -12 -11 -12 -12 -12 -12 -11 -11 -11 -11 -10 -11 -11 -11 -11 -12 -12 -12 -13 -13 -13 -13 -13 -13 -12 -12 -12 -12 -12 -13 -13 -13 -13 -13
-12 -9 -12 -12 -12 -11 -12 -11 -11 -11 -13 -13 -12 -12 -12 -11 -11 -11 -10 -11 -11 -11 -11 -11 -11 -12 -12 -12 -12 -12 -12 -12 -12 -12 -12 -12 -12 -12 -13 -12 -12 -13 -13 -13
-12 -12 -12 -12 -12 -12 -11 -11 -12 -13 -13 -12 -13 -10 -11 -10 -11 -11 -11 -11 -11 -11 -11 -11 -11 -12 -12 -12 -11 -11 -12 -12 -12 -12 -12 -12 -12 -12 -12 -12 -12 -13 -13 -13
-10 -10 -11 -12 -12 -12 -12 -13 -13 -13 -13 -13 -12 -11 -9 -11 -10 -10 -11 -11 -11 -11 -11 -11 -11 -12 -13 -11 -11 -11 -11 -12 -12 -12 -12 -12 -12 -12 -12 -12 -12 -13 -13 -13
-12 -12 -13 -12 -12 -12 -13 -12 -13 -13 -13 -12 -11 -12 -9 -10 -11 -11 -11 -11 -11 -12 -11 -11 -11 -12 -12 -11 -11 -11 -11 -12 -12 -12 -12 -12 -12 -12 -12 -12 -13 -13 -14 -14
-12 -11 -11 -12 -12 -12 -13 -13 -12 -13 -12 -10 -10 -11 -9 -11 -11 -11 -11 -11 -11 -11 -11 -11 -12 -12 -11 -11 -10 -11 -11 -12 -12 -12 -12 -12 -12 -12 -12 -13 -13 -14 -14 -14
-12 -12 -12 -12 -11 -11 -12 -12 -11 -11 -11 -11 -11 -9 -9 -10 -11 -11 -11 -11 -11 -11 -11 -12 -11 -11 -10 -10 -10 -11 -12 -11 -12 -12 -12 -12 -12 -12 -12 -13 -14 -14 -14 -14
-14 -12 -12 -12 -12 -12 -12 -11 -12 -12 -11 -11 -9 -9 -9 -10 -11 -11 -10 -11 -11 -11 -12 -11 -11 -11 -10 -10 -11 -11 -11 -12 -12 -12 -12 -12 -12 -12 -12 -13 -13 -14 -14 -14
-13 -12 -12 -13 -13 -12 -12 -12 -11 -11 -10 -10 -9 -9 -9 -10 -10 -10 -10 -11 -11 -11 -11 -11 -10 -11 -10 -10 -11 -11 -11 -12 -12 -12 -12 -12 -12 -12 -12 -12 -13 -13 -13 -13
-14 -12 -12 -13 -12 -11 -11 -11 -11 -11 -11 -10 -9 -9 -9 -10 -11 -10 -11 -11 -11 -11 -11 -10 -11 -10 -10 -10 -11 -11 -12 -12 -12 -12 -12 -12 -12 -12 -12 -12 -12 -13 -13 -13
-15 -13 -13 -12 -12 -12 -12 -12 -11 -11 -10 -10 -10 -9 -9 -10 -11 -11 -11 -11 -11 -11 -10 -10 -11 -11 -10 -11 -11 -11 -11 -12 -12 -12 -12 -12 -12 -12 -12 -12 -12 -12 -12 -13
-16 -14 -14 -13 -13 -12 -11 -11 -11 -11 -11 -10 -11 -10 -11 -11 -11 -11 -11 -11 -11 -10 -10 -10 -11 -11 -10 -11 -11 -11 -11 -11 -12 -12 -12 -12 -12 -12 -11 -11 -11 -12 -12 -13
-16 -14 -13 -13 -12 -12 -11 -11 -10 -11 -10 -10 -9 -10 -11 -11 -11 -11 -12 -12 -11 -10 -10 -11 -11 -10 -11 -11 -11 -11 -11 -11 -12 -12 -12 -12 -12 -12 -12 -11 -11 -12 -12 -12
-17 -15 -14 -13 -13 -12 -11 -11 -10 -9 -10 -10 -9 -10 -11 -12 -12 -11 -12 -12 -11 -10 -11 -11 -11 -10 -11 -11 -11 -11 -11 -11 -11 -12 -12 -12 -12 -13 -12 -12 -11 -12 -12 -12
-18 -16 -13 -13 -13 -13 -12 -11 -10 -10 -11 -10 -10 -10 -12 -12 -12 -12 -12 -12 -11 -11 -10 -11 -11 -10 -10 -11 -11 -11 -11 -11 -11 -11 -11 -12 -12 -12 -12 -12 -11 -12 -12 -11
-19 -16 -14 -14 -14 -13 -12 -11 -10 -10 -10 -10 -10 -11 -11 -11 -11 -12 -12 -11 -12 -11 -11 -11 -11 -11 -11 -11 -11 -11 -11 -11 -11 -11 -11 -12 -12 -12 -12 -12 -12 -12 -11 -11
-19 -17 -15 -15 -15 -13 -12 -11 -11 -11 -11 -10 -11 -12 -12 -12 -12 -12 -12 -11 -12 -11 -11 -11 -11 -11 -11 -11 -11 -11 -11 -11 -11 -11 -12 -12 -12 -12 -12 -12 -12 -12 -12 -11
-20 -18 -17 -17 -15 -13 -13 -12 -11 -11 -11 -10 -11 -11 -11 -11 -12 -11 -11 -11 -12 -12 -12 -11 -11 -11 -10 -11 -11 -11 -11 -11 -11 -11 -12 -12 -12 -12 -12 -12 -12 -12 -12 -12
-19 -19 -18 -17 -15 -14 -13 -13 -12 -12 -11 -10 -11 -12 -11 -11 -10 -10 -11 -11 -11 -12 -11 -11 -11 -11 -11 -11 -11 -11 -11 -11 -11 -11 -12 -12 -12 -12 -12 -12 -12 -12 -12 -12
-20 -19 -18 -16 -15 -15 -15 -13 -14 -12 -11 -10 -10 -11 -11 -11 -10 -12 -11 -11 -12 -12 -12 -12 -11 -11 -11 -11 -11 -11 -12 -11 -11 -12 -12 -12 -12 -12 -12 -12 -12 -12 -12 -12
-20 -19 -18 -17 -16 -16 -16 -14 -13 -11 -11 -10 -10 -11 -11 -11 -11 -11 -11 -11 -11 -12 -12 -12 -11 -11 -11 -11 -11 -11 -11 -12 -12 -12 -12 -12 -12 -12 -12 -12 -12 -12 -12 -12
-20 -19 -18 -17 -16 -16 -16 -14 -12 -12 -12 -11 -11 -11 -11 -11 -11 -11 -11 -10 -11 -12 -11 -12 -12 -11 -11 -11 -11 -11 -11 -12 -12 -12 -12 -12 -12 -12 -12 -12 -12 -12 -12 -12
-20 -19 -19 -18 -17 -16 -16 -15 -13 -12 -12 -11 -10 -11 -11 -11 -12 -11 -11 -10 -10 -11 -11 -11 -12 -11 -11 -11 -11 -11 -11 -11 -12 -12 -12 -12 -12 -12 -12 -12 -12 -12 -12 -12
-20 -19 -19 -17 -17 -17 -16 -16 -14 -13 -12 -12 -11 -11 -11 -11 -12 -12 -11 -11 -10 -11 -11 -11 -12 -12 -12 -11 -11 -11 -12 -11 -11 -12 -12 -12 -12 -12 -12 -12 -12 -12 -12 -12
-20 -19 -19 -18 -17 -17 -16 -15 -15 -14 -13 -12 -12 -11 -12 -11 -12 -11 -11 -11 -11 -10 -11 -11 -12 -12 -12 -11 -11 -11 -11 -11 -11 -11 -11 -12 -12 -12 -12 -12 -12 -12 -12 -12